[[{"header":{"parameterUnit":"m.s-1","parameterCategory":1,"la1":30.2991,"la2":30.254,"lo1":-89.0895,"lo2":-89.0444,"dy":0.0017,"dx":0.0017,"nx":28,"ny":28,"refTime":"2023-06-27T21:00:00:Z","depth":0,"parameterNumber":2,"parameterNumberName":"U-component_of_WINDS"},"data":[0,0,0,0,0,0,0,0,0,0,0,0,0,0,0,0,0,0,0,0,0,0,0,0,0,0,0,0,0,0,0,0,0,0,0,0,0,0,0,0,0,0,0,0,0,0,0,0,0,0,0,0,0,0,0,0,0,0,-0.6127,-0.6127,0,-0.6114,-0.6114,-0.6114,-0.6055,-0.6053,-0.6052,-0.6051,-0.604,-0.6041,-0.6042,0,0,0,0,0,0,0,0,0,0,0,0,0,-0.6102,-0.6103,-0.6127,-0.6127,-0.6127,-0.6114,-0.6114,-0.6113,-0.6055,-0.6053,-0.6052,-0.605,-0.604,-0.6041,-0.6042,0,0,0,0,0,0,0,0,0,0,0,0,0,-0.6104,-0.6103,-0.6127,-0.6096,-0.6093,-0.6114,-0.6114,-0.6113,-0.6055,-0.6053,-0.6051,-0.6049,-0.604,-0.6041,-0.6043,-0.6094,0,0,-0.6047,-0.6048,0,0,0,0,0,0,0,0,-0.6104,-0.6105,-0.61,-0.6098,-0.6095,-0.6084,-0.6101,-0.6107,-0.6056,-0.607,-0.6051,-0.6048,-0.6057,-0.6057,-0.6059,-0.6093,-0.6093,-0.6047,-0.6048,-0.6049,-0.6049,0,0,0,0,0,0,0,-0.6104,-0.6105,-0.6122,-0.61,-0.6097,-0.6083,-0.6081,-0.6102,-0.6075,-0.6068,-0.6064,-0.6063,-0.6055,-0.6058,-0.6058,-0.6092,-0.6047,-0.6049,-0.605,-0.605,-0.6167,-0.6169,0,0,0,0,0,0,-0.6108,-0.6105,-0.6122,-0.6121,-0.6094,-0.6085,-0.6083,-0.6089,-0.6075,-0.607,-0.6065,-0.606,-0.6056,-0.6056,-0.6058,-0.6117,-0.6049,-0.605,-0.6051,-0.6165,-0.6168,-0.617,0,0,0,0,0,0,-0.6107,-0.611,-0.6123,-0.6112,-0.6113,-0.6088,-0.6096,-0.609,-0.6093,-0.6072,-0.6067,-0.6073,-0.6054,-0.6055,-0.6085,-0.6116,-0.6051,-0.6052,-0.6163,-0.6166,-0.6169,-0.6236,0,0,0,0,0,0,-0.6107,-0.611,-0.6129,-0.6113,-0.6113,-0.615,-0.6098,-0.6091,-0.6095,-0.609,-0.6078,-0.6074,-0.6053,-0.6083,-0.6086,-0.6117,-0.6054,-0.616,-0.6164,-0.6168,-0.6231,-0.6241,-0.625,0,0,0,0,0,-0.6106,-0.6149,-0.613,-0.6133,-0.6137,-0.6152,-0.6152,-0.6126,-0.6098,-0.6118,-0.6103,-0.6075,-0.6111,-0.6086,-0.609,-0.6121,-0.6158,-0.6163,-0.6168,-0.6227,-0.6239,-0.625,0,0,0,0,0,0,-0.6172,-0.6147,-0.6126,-0.6164,-0.6161,-0.6142,-0.6166,-0.614,-0.6145,-0.614,-0.6107,-0.6105,-0.6139,-0.6132,-0.6105,-0.6169,-0.6129,-0.6135,-0.6173,-0.6185,-0.6194,-0.6197,-0.6055,0,0,0,0,0,-0.619,-0.6204,-0.6182,-0.6218,-0.6217,-0.6192,-0.6197,-0.6177,-0.6172,-0.6171,-0.6159,-0.6156,-0.6167,-0.6175,-0.6183,-0.6228,-0.6226,-0.6251,-0.6261,-0.6269,-0.6275,-0.6299,-0.6311,-0.6186,-0.6186,-0.6186,0,0,-0.623,-0.6218,-0.6229,-0.6231,-0.6226,-0.6241,-0.6191,-0.621,-0.6222,-0.6174,-0.6201,-0.6192,-0.6187,-0.6224,-0.624,-0.622,-0.6308,-0.6275,-0.6282,-0.6284,-0.6305,-0.6317,-0.6328,-0.619,-0.6189,-0.6189,0,0,-0.631,-0.6302,-0.6331,-0.6326,-0.6318,-0.63,-0.6307,-0.6292,-0.6284,-0.631,-0.6275,-0.6288,-0.6307,-0.6304,-0.6306,-0.6382,-0.6356,-0.6385,-0.6436,-0.646,-0.647,-0.6478,-0.6507,-0.6518,-0.6391,-0.6391,-0.6391,0,-0.6361,-0.6383,-0.635,-0.6371,-0.6374,-0.6328,-0.6359,-0.6355,-0.6351,-0.6354,-0.633,-0.6352,-0.6345,-0.6382,-0.64,-0.6402,-0.641,-0.6388,-0.647,-0.6479,-0.6486,-0.6514,-0.6525,-0.6395,-0.6395,-0.6394,-0.6394,0,-0.6446,-0.6461,-0.6486,-0.6482,-0.6486,-0.6512,-0.6484,-0.6492,-0.647,-0.6455,-0.6482,-0.6471,-0.6477,-0.6483,-0.6463,-0.6517,-0.6505,-0.6476,-0.6436,-0.6503,-0.6528,-0.6538,-0.64,-0.6399,-0.6398,-0.6397,0,0,-0.6572,-0.6546,-0.6557,-0.6554,-0.654,-0.6552,-0.6574,-0.6578,-0.6587,-0.6584,-0.6604,-0.6619,-0.6592,-0.6594,-0.6572,-0.6592,-0.6655,-0.6561,-0.656,-0.6581,-0.6715,-0.6739,-0.6752,-0.6635,-0.6637,-0.6638,-0.6716,0,-0.6651,-0.6689,-0.6658,-0.6702,-0.6716,-0.6672,-0.6692,-0.6686,-0.6671,-0.6681,-0.6665,-0.6678,-0.664,-0.6641,-0.6658,-0.6643,-0.6682,-0.6637,-0.6655,-0.6656,-0.6661,-0.6764,-0.679,-0.6864,-0.6726,-0.6727,-0.6728,0,-0.6749,-0.6749,-0.6794,-0.6776,-0.6781,-0.68,-0.68,-0.681,-0.6802,-0.679,-0.679,-0.6762,-0.6783,-0.6741,-0.677,-0.6741,-0.6745,-0.6739,-0.6741,-0.6745,-0.6699,-0.6774,-0.6887,-0.6899,-0.6743,-0.6742,-0.6741,0,-0.6839,-0.685,-0.6879,-0.6877,-0.6856,-0.6871,-0.6863,-0.6852,-0.6856,-0.6856,-0.6859,-0.6862,-0.6864,-0.6867,-0.6841,-0.6812,-0.6875,-0.683,-0.6867,-0.6868,-0.6886,-0.6886,-0.7004,-0.6883,-0.6883,-0.6883,-0.6883,0,-0.6932,-0.6963,-0.6919,-0.6937,-0.6969,-0.6933,-0.6965,-0.6953,-0.6943,-0.6958,-0.6918,-0.6933,-0.6896,-0.6907,-0.6886,-0.6915,-0.6915,-0.6907,-0.6902,-0.6913,-0.6914,-0.6918,-0.6914,-0.6886,-0.6885,-0.6885,-0.6884,0,-0.7041,-0.7013,-0.7041,-0.7017,-0.7012,-0.7037,-0.7017,-0.7033,-0.7014,-0.7033,-0.7036,-0.7007,-0.7018,-0.699,-0.6997,-0.6983,-0.7024,-0.7009,-0.7028,-0.7024,-0.7064,-0.7062,-0.7193,-0.7209,-0.7074,-0.7076,-0.7077,0,-0.7104,-0.7126,-0.7104,-0.711,-0.7104,-0.7115,-0.7119,-0.7083,-0.7088,-0.7079,-0.7096,-0.7102,-0.7107,-0.7126,-0.7106,-0.7111,-0.7097,-0.7142,-0.7098,-0.7108,-0.7101,-0.7102,-0.7104,-0.7153,-0.7155,-0.7156,-0.7157,0,-0.7221,-0.7205,-0.7211,-0.7211,-0.7216,-0.7215,-0.7211,-0.7219,-0.718,-0.7188,-0.7198,-0.7201,-0.7206,-0.7214,-0.7214,-0.7206,-0.7177,-0.7171,-0.718,-0.7193,-0.7204,-0.7201,-0.7056,-0.7169,-0.7168,-0.7167,-0.7166,-0.7166,-0.7311,-0.7328,-0.7315,-0.7322,-0.7315,-0.7311,-0.7325,-0.7307,-0.7314,-0.7315,-0.7293,-0.7308,-0.7297,-0.7293,-0.7288,-0.7299,-0.7278,-0.7291,-0.7295,-0.73,-0.7308,-0.7199,-0.7298,-0.7298,-0.7298,-0.7297,-0.7297,0,-0.7427,-0.7415,-0.7422,-0.7417,-0.7423,-0.7391,-0.7384,-0.7392,-0.7405,-0.7396,-0.74,-0.7411,-0.7418,-0.7397,-0.7401,-0.7414,-0.74,-0.7416,-0.7417,-0.7416,-0.7325,-0.7318,-0.7427,-0.7427,-0.7427,-0.7427,-0.7427,-0.7427,-0.7489,-0.7517,-0.7499,-0.7522,-0.751,-0.7523,-0.7522,-0.7519,-0.7512,-0.7526,-0.753,-0.7516,-0.7502,-0.7504,-0.7509,-0.7503,-0.7507,-0.7529,-0.7518,-0.7435,-0.7422,-0.741,-0.7403,-0.7529,-0.7529,-0.7608,-0.7609,-0.761]},{"header":{"parameterUnit":"m.s-1","parameterCategory":1,"la1":30.2991,"la2":30.254,"lo1":-89.0895,"lo2":-89.0444,"dy":0.0017,"dx":0.0017,"nx":28,"ny":28,"refTime":"2023-06-27T21:00:00:Z","depth":0,"parameterNumber":3,"parameterNumberName":"V-component_of_WINDS"},"data":[0,0,0,0,0,0,0,0,0,0,0,0,0,0,0,0,0,0,0,0,0,0,0,0,0,0,0,0,0,0,0,0,0,0,0,0,0,0,0,0,0,0,0,0,0,0,0,0,0,0,0,0,0,0,0,0,0,0,-0.0039,-0.0039,0,0.001,0.0011,0.0011,-0.0003,-0.0004,-0.0005,-0.0006,0.005,0.0052,0.0055,0,0,0,0,0,0,0,0,0,0,0,0,0,-0.014,-0.0139,-0.0039,-0.0039,-0.0038,0.001,0.0011,0.0011,-0.0003,-0.0004,-0.0006,-0.0007,0.0049,0.0052,0.0055,0,0,0,0,0,0,0,0,0,0,0,0,0,-0.0094,-0.0138,-0.0039,-0.004,-0.0039,0.001,0.0011,0.0012,-0.0003,-0.0004,-0.0006,-0.0007,0.0048,0.0052,0.0055,0.011,0,0,0.0067,0.0068,0,0,0,0,0,0,0,0,-0.0097,-0.009,-0.004,-0.004,-0.0039,-0.0005,-0.0004,0.0045,-0.0002,-0.0016,-0.0006,-0.0008,0.0033,0.0038,0.0051,0.0112,0.0115,0.0067,0.0069,0.0071,0.0072,0,0,0,0,0,0,0,-0.01,-0.0093,-0.002,-0.004,-0.0039,-0.004,-0.0036,0.0005,0.0017,-0.0015,-0.0016,-0.0011,0.0034,0.0048,0.0052,0.0115,0.0067,0.007,0.0073,0.0074,0.0225,0.0227,0,0,0,0,0,0,-0.0104,-0.0095,-0.0021,-0.0018,-0.0073,-0.0037,-0.0032,-0.0014,0.0016,0.0019,-0.0009,-0.0011,0.0042,0.0048,0.0054,0.0121,0.0071,0.0074,0.0077,0.0224,0.0226,0.0228,0,0,0,0,0,0,-0.0107,-0.0098,-0.0023,-0.0057,-0.0048,-0.0034,-0.0014,-0.0012,0.0002,0.0021,0.0023,0.0002,0.0041,0.0049,0.0096,0.0123,0.0076,0.0079,0.0222,0.0224,0.0227,0.0254,0,0,0,0,0,0,-0.0109,-0.0098,-0.0079,-0.0057,-0.0046,0.0016,-0.0012,-0.001,0.0008,0.0005,0.0033,0.0036,0.004,0.0091,0.01,0.0127,0.0082,0.0219,0.0223,0.0226,0.0251,0.0258,0.0263,0,0,0,0,0,-0.0113,-0.0072,-0.0078,-0.0069,-0.0022,0.0017,0.0024,0.0027,0.001,0.003,0.0043,0.0035,0.0118,0.0095,0.0106,0.0135,0.0218,0.0222,0.0226,0.0248,0.0256,0.0263,0,0,0,0,0,0,-0.009,-0.007,-0.0075,-0.0027,-0.0007,0.0015,0.0041,0.0035,0.0062,0.0059,0.0063,0.007,0.0118,0.0131,0.0105,0.019,0.0166,0.0172,0.0179,0.0187,0.0193,0.019,0.0085,0,0,0,0,0,-0.008,-0.0052,-0.0035,0.0007,0.0017,0.0027,0.0044,0.0045,0.0067,0.0076,0.0092,0.0115,0.0146,0.0167,0.0197,0.0252,0.0259,0.0277,0.0283,0.0288,0.0294,0.0327,0.0335,0.0241,0.0241,0.0241,0,0,-0.0058,-0.0043,-0.0025,0.0012,0.0027,0.0059,0.0035,0.0068,0.0092,0.0082,0.0127,0.0139,0.0166,0.0217,0.0241,0.023,0.0322,0.0293,0.0297,0.0301,0.0332,0.0341,0.0348,0.0244,0.0243,0.0243,0,0,-0.0001,0.0012,0.0048,0.0064,0.0088,0.0095,0.0103,0.0126,0.0133,0.0178,0.0171,0.02,0.0254,0.0274,0.0291,0.0355,0.035,0.0365,0.0397,0.0428,0.0436,0.0442,0.0467,0.0476,0.037,0.037,0.037,0,0.0024,0.0069,0.0069,0.0103,0.012,0.011,0.0149,0.0165,0.0198,0.0211,0.0197,0.0265,0.0282,0.0339,0.0355,0.0368,0.038,0.0362,0.0434,0.0441,0.0447,0.0471,0.048,0.0372,0.0372,0.0372,0.0372,0,0.01,0.0131,0.0158,0.0188,0.0209,0.0245,0.0252,0.0273,0.0272,0.028,0.0328,0.0347,0.0382,0.0395,0.0395,0.0453,0.0445,0.0433,0.0409,0.0458,0.0481,0.049,0.0375,0.0374,0.0374,0.0373,0,0,0.0173,0.0202,0.0213,0.0227,0.0252,0.0277,0.0314,0.0346,0.0365,0.0388,0.042,0.0466,0.0455,0.0474,0.0476,0.0503,0.0555,0.0488,0.0489,0.0501,0.0623,0.0633,0.0644,0.0551,0.0553,0.0554,0.0621,0,0.0233,0.0296,0.0297,0.0355,0.0385,0.0376,0.0408,0.0429,0.0438,0.0466,0.0477,0.051,0.0492,0.0504,0.053,0.0543,0.058,0.0538,0.0584,0.0585,0.0579,0.0655,0.0666,0.0728,0.063,0.0631,0.0632,0,0.0312,0.0336,0.0397,0.0419,0.0431,0.046,0.049,0.0516,0.054,0.0545,0.0567,0.0565,0.0604,0.0578,0.0634,0.0606,0.0624,0.0634,0.0637,0.0643,0.0613,0.0665,0.0748,0.0758,0.0646,0.0645,0.0644,0,0.0362,0.0409,0.0452,0.0464,0.049,0.0511,0.0523,0.0545,0.0565,0.0591,0.0605,0.0636,0.0654,0.068,0.0687,0.0667,0.0744,0.0718,0.0752,0.0752,0.077,0.0769,0.0859,0.0779,0.0778,0.0778,0.0778,0,0.043,0.0468,0.0475,0.0501,0.0545,0.0546,0.0589,0.06,0.062,0.065,0.0645,0.0674,0.0681,0.0712,0.0718,0.0765,0.0773,0.0779,0.0781,0.0781,0.078,0.0795,0.0791,0.0781,0.078,0.078,0.0779,0,0.0493,0.0499,0.0545,0.0566,0.0572,0.0603,0.0622,0.0648,0.0656,0.0695,0.0704,0.0718,0.0754,0.0764,0.0807,0.0812,0.0868,0.0864,0.0859,0.086,0.0893,0.0891,0.0997,0.1012,0.092,0.0921,0.0922,0,0.0537,0.0566,0.0589,0.0608,0.0621,0.0651,0.0671,0.0674,0.0695,0.0724,0.0748,0.0783,0.0812,0.0871,0.0886,0.092,0.0919,0.0953,0.0924,0.0923,0.0922,0.092,0.0924,0.096,0.0961,0.0962,0.0962,0,0.0615,0.0616,0.0644,0.0673,0.0696,0.0719,0.0741,0.0758,0.0764,0.0789,0.0825,0.0846,0.0891,0.0927,0.0961,0.0976,0.0972,0.0971,0.0981,0.0982,0.0979,0.0983,0.0877,0.0969,0.0968,0.0968,0.0968,0.0967,0.0671,0.0697,0.0717,0.0749,0.0765,0.0786,0.0813,0.0824,0.0853,0.0888,0.0889,0.0929,0.0953,0.0998,0.1015,0.1048,0.1038,0.1052,0.1056,0.106,0.1063,0.0972,0.1054,0.1054,0.1054,0.1054,0.1054,0,0.0751,0.0763,0.0791,0.0822,0.0847,0.0838,0.0863,0.0885,0.0919,0.0942,0.0969,0.1012,0.1047,0.1065,0.11,0.1123,0.1122,0.1132,0.1132,0.1136,0.107,0.1058,0.1133,0.1133,0.1133,0.1133,0.1133,0.1133,0.0795,0.0838,0.0843,0.0895,0.0908,0.0946,0.0961,0.0981,0.0999,0.1046,0.1074,0.1085,0.1106,0.1143,0.1175,0.118,0.1194,0.1206,0.121,0.1148,0.114,0.1133,0.1122,0.1209,0.1209,0.1274,0.1274,0.1275]}]]